DFMGH EDNY-EDDN

Flight info

Callsign DFMGH
Flight time 0h 46m
Altitude 23000
Route ALAGO1E ALAGO Z5 LOKTA DCT BABEG DCT DKB N869 LETKU LETKU1V
Aircraft PC12/L-SDFGRWY/S

Departure

Time 2026-04-24 20:05
Airport Bodensee Airport Friedrichshafen (EDNY)

Arrival

Time 2026-04-24 20:51
Airport Nuremberg Airport (EDDN)
Time Latitude Longitude Altitude Speed Heading
2026-04-24 19:50 47.67499 9.50897 1351 ft 0 kts 149°
2026-04-24 20:01 47.67489 9.50900 1351 ft 6 kts 186°
2026-04-24 20:01 47.67414 9.50921 1351 ft 18 kts 151°
2026-04-24 20:02 47.67323 9.51003 1356 ft 18 kts 142°
2026-04-24 20:02 47.67235 9.51109 1356 ft 10 kts 142°
2026-04-24 20:02 47.67222 9.51122 1357 ft 0 kts 142°
2026-04-24 20:03 47.67218 9.51127 1357 ft 5 kts 141°
2026-04-24 20:03 47.67163 9.51195 1357 ft 9 kts 128°
2026-04-24 20:03 47.67163 9.51226 1357 ft 0 kts 57°
2026-04-24 20:04 47.67196 9.51308 1358 ft 37 kts 60°
2026-04-24 20:04 47.67435 9.51927 1369 ft 96 kts 56°
2026-04-24 20:04 47.67802 9.52869 1690 ft 115 kts 59°
2026-04-24 20:05 47.68180 9.53981 2214 ft 126 kts 63°
2026-04-24 20:05 47.68606 9.55259 2638 ft 151 kts 57°
2026-04-24 20:05 47.69439 9.56332 3219 ft 167 kts 28°
2026-04-24 20:05 47.70571 9.56694 4043 ft 162 kts 358°
2026-04-24 20:06 47.71576 9.56291 5041 ft 149 kts 332°
2026-04-24 20:06 47.72403 9.55351 5816 ft 151 kts 318°
2026-04-24 20:06 47.73207 9.54377 6700 ft 148 kts 320°
2026-04-24 20:06 47.74013 9.53417 7492 ft 150 kts 320°
2026-04-24 20:07 47.74562 9.52757 8028 ft 150 kts 319°
2026-04-24 20:07 47.75647 9.51458 9113 ft 153 kts 320°
2026-04-24 20:07 47.76478 9.50462 9962 ft 154 kts 320°
2026-04-24 20:07 47.77315 9.49460 10721 ft 155 kts 320°
2026-04-24 20:08 47.78158 9.48448 11468 ft 157 kts 320°
2026-04-24 20:08 47.79010 9.47426 12230 ft 158 kts 321°
2026-04-24 20:08 47.79874 9.46395 12989 ft 160 kts 323°
2026-04-24 20:08 47.80854 9.45605 13738 ft 161 kts 334°
2026-04-24 20:09 47.81858 9.44851 14428 ft 163 kts 332°
2026-04-24 20:09 47.82877 9.44073 15080 ft 166 kts 333°
2026-04-24 20:09 47.83913 9.43286 15731 ft 169 kts 333°
2026-04-24 20:09 47.84967 9.42487 16399 ft 171 kts 333°
2026-04-24 20:10 47.86038 9.41673 17070 ft 174 kts 332°
2026-04-24 20:10 47.87127 9.40846 17747 ft 177 kts 333°
2026-04-24 20:10 47.88237 9.40006 18421 ft 180 kts 333°
2026-04-24 20:10 47.89361 9.39153 19027 ft 183 kts 332°
2026-04-24 20:11 47.90482 9.38299 19635 ft 184 kts 332°
2026-04-24 20:11 47.91640 9.37418 20264 ft 185 kts 332°
2026-04-24 20:11 47.92780 9.36550 20885 ft 187 kts 332°
2026-04-24 20:11 47.93945 9.35664 21536 ft 189 kts 332°
2026-04-24 20:12 47.95118 9.34769 22173 ft 190 kts 332°
2026-04-24 20:12 47.96304 9.33866 22802 ft 193 kts 332°
2026-04-24 20:12 47.97509 9.32948 23150 ft 200 kts 332°
2026-04-24 20:12 47.98845 9.31929 23173 ft 230 kts 332°
2026-04-24 20:13 48.00339 9.30791 23177 ft 251 kts 332°
2026-04-24 20:13 48.01944 9.29568 23172 ft 265 kts 332°
2026-04-24 20:13 48.03616 9.28290 23177 ft 273 kts 332°
2026-04-24 20:13 48.05322 9.26983 23167 ft 278 kts 332°
2026-04-24 20:14 48.07048 9.25661 23163 ft 280 kts 332°
2026-04-24 20:14 48.08769 9.24344 23172 ft 281 kts 332°
2026-04-24 20:14 48.10538 9.22988 23168 ft 282 kts 332°
2026-04-24 20:14 48.12259 9.21668 23172 ft 282 kts 332°
2026-04-24 20:15 48.14053 9.20515 23161 ft 282 kts 342°
2026-04-24 20:15 48.16021 9.20050 23160 ft 284 kts 357°
2026-04-24 20:15 48.17966 9.20322 23161 ft 286 kts 11°
2026-04-24 20:15 48.19841 9.21328 23153 ft 287 kts 25°
2026-04-24 20:16 48.21545 9.22883 23157 ft 285 kts 31°
2026-04-24 20:16 48.23225 9.24478 23157 ft 286 kts 30°
2026-04-24 20:16 48.24913 9.26070 23158 ft 287 kts 30°
2026-04-24 20:16 48.26603 9.27675 23164 ft 288 kts 31°
2026-04-24 20:17 48.28298 9.29280 23164 ft 288 kts 30°
2026-04-24 20:17 48.31688 9.32499 23162 ft 288 kts 30°
2026-04-24 20:17 48.33382 9.34110 23166 ft 288 kts 30°
2026-04-24 20:18 48.34506 9.35180 23167 ft 288 kts 30°
2026-04-24 20:18 48.36774 9.37338 23164 ft 288 kts 30°
2026-04-24 20:18 48.38468 9.38953 23160 ft 288 kts 30°
2026-04-24 20:18 48.40143 9.40549 23164 ft 289 kts 30°
2026-04-24 20:19 48.41837 9.42167 23165 ft 289 kts 30°
2026-04-24 20:19 48.43534 9.43788 23164 ft 289 kts 30°
2026-04-24 20:19 48.45230 9.45409 23160 ft 289 kts 30°
2026-04-24 20:19 48.46925 9.47034 23155 ft 289 kts 30°
2026-04-24 20:20 48.48621 9.48660 23165 ft 289 kts 30°
2026-04-24 20:20 48.50318 9.50282 23160 ft 289 kts 30°
2026-04-24 20:20 48.52016 9.51905 23157 ft 289 kts 30°
2026-04-24 20:20 48.53712 9.53533 23165 ft 289 kts 30°
2026-04-24 20:21 48.55405 9.55164 23159 ft 289 kts 30°
2026-04-24 20:21 48.57100 9.56794 23156 ft 289 kts 30°
2026-04-24 20:21 48.58795 9.58424 23158 ft 289 kts 30°
2026-04-24 20:21 48.60489 9.60055 23158 ft 289 kts 30°
2026-04-24 20:22 48.62185 9.61689 23157 ft 289 kts 30°
2026-04-24 20:22 48.63879 9.63323 23160 ft 289 kts 30°
2026-04-24 20:22 48.65573 9.64958 23160 ft 289 kts 30°
2026-04-24 20:22 48.67240 9.66591 23158 ft 289 kts 32°
2026-04-24 20:23 48.68823 9.68466 23155 ft 290 kts 36°
2026-04-24 20:23 48.70396 9.70383 23155 ft 290 kts 36°
2026-04-24 20:23 48.71973 9.72284 23158 ft 290 kts 36°
2026-04-24 20:23 48.73552 9.74181 23160 ft 290 kts 36°
2026-04-24 20:24 48.74589 9.75431 23078 ft 286 kts 36°
2026-04-24 20:24 48.76686 9.77960 22792 ft 290 kts 36°
2026-04-24 20:24 48.78265 9.79870 22582 ft 291 kts 36°
2026-04-24 20:24 48.79851 9.81791 22376 ft 291 kts 36°
2026-04-24 20:25 48.81436 9.83710 22171 ft 292 kts 36°
2026-04-24 20:25 48.83025 9.85633 21967 ft 292 kts 36°
2026-04-24 20:25 48.84613 9.87560 21761 ft 292 kts 36°
2026-04-24 20:25 48.86200 9.89486 21566 ft 292 kts 36°
2026-04-24 20:26 48.87786 9.91412 21361 ft 292 kts 36°
2026-04-24 20:26 48.89368 9.93336 21164 ft 291 kts 36°
2026-04-24 20:26 48.90927 9.95231 20964 ft 290 kts 36°
2026-04-24 20:26 48.92506 9.97154 20768 ft 291 kts 36°
2026-04-24 20:27 48.94089 9.99085 20575 ft 292 kts 36°
2026-04-24 20:27 48.95676 10.01020 20378 ft 293 kts 36°
2026-04-24 20:27 48.97267 10.02962 20188 ft 293 kts 36°
2026-04-24 20:27 48.98852 10.04901 19996 ft 293 kts 36°
2026-04-24 20:28 49.00443 10.06842 19804 ft 294 kts 36°
2026-04-24 20:28 49.02037 10.08792 19614 ft 294 kts 36°
2026-04-24 20:28 49.03630 10.10746 19430 ft 294 kts 36°
2026-04-24 20:28 49.05228 10.12705 19245 ft 294 kts 36°
2026-04-24 20:29 49.06285 10.14002 19117 ft 295 kts 36°
2026-04-24 20:29 49.08399 10.16597 18877 ft 295 kts 36°
2026-04-24 20:29 49.10020 10.18590 18689 ft 295 kts 36°
2026-04-24 20:29 49.11616 10.20552 18506 ft 294 kts 36°
2026-04-24 20:30 49.13189 10.22490 18310 ft 294 kts 36°
2026-04-24 20:30 49.14742 10.24517 18097 ft 294 kts 42°
2026-04-24 20:30 49.16177 10.26731 17886 ft 293 kts 43°
2026-04-24 20:30 49.17612 10.28946 17677 ft 292 kts 43°
2026-04-24 20:31 49.19050 10.31144 17472 ft 292 kts 42°
2026-04-24 20:31 49.20475 10.33326 17264 ft 288 kts 42°
2026-04-24 20:31 49.21895 10.35509 17059 ft 289 kts 42°
2026-04-24 20:31 49.23313 10.37691 16857 ft 289 kts 42°
2026-04-24 20:32 49.24728 10.39867 16655 ft 288 kts 42°
2026-04-24 20:32 49.26140 10.42040 16453 ft 287 kts 43°
2026-04-24 20:32 49.27525 10.44176 16253 ft 282 kts 42°
2026-04-24 20:32 49.28878 10.46265 16048 ft 279 kts 42°
2026-04-24 20:33 49.30258 10.48391 15848 ft 282 kts 42°
2026-04-24 20:33 49.31640 10.50526 15656 ft 282 kts 42°
2026-04-24 20:33 49.33017 10.52658 15460 ft 281 kts 42°
2026-04-24 20:33 49.34392 10.54787 15271 ft 280 kts 42°
2026-04-24 20:34 49.35759 10.56904 15078 ft 279 kts 43°
2026-04-24 20:34 49.37120 10.59015 14887 ft 277 kts 42°
2026-04-24 20:34 49.38474 10.61117 14700 ft 276 kts 42°
2026-04-24 20:34 49.39823 10.63211 14525 ft 274 kts 43°
2026-04-24 20:35 49.41152 10.65295 14433 ft 271 kts 44°
2026-04-24 20:35 49.42224 10.67650 14339 ft 276 kts 59°
2026-04-24 20:35 49.42888 10.70427 14253 ft 279 kts 74°
2026-04-24 20:35 49.43068 10.73417 14058 ft 284 kts 90°
2026-04-24 20:36 49.42820 10.76417 13860 ft 281 kts 97°
2026-04-24 20:36 49.42530 10.79379 13646 ft 280 kts 96°
2026-04-24 20:36 49.42247 10.82338 13441 ft 279 kts 96°
2026-04-24 20:36 49.41966 10.85280 13215 ft 279 kts 96°
2026-04-24 20:37 49.41682 10.88222 13007 ft 278 kts 96°
2026-04-24 20:37 49.41397 10.91157 12800 ft 277 kts 96°
2026-04-24 20:37 49.41113 10.94078 12597 ft 276 kts 96°
2026-04-24 20:37 49.40829 10.96995 12387 ft 276 kts 96°
2026-04-24 20:38 49.40545 10.99903 12135 ft 273 kts 96°
2026-04-24 20:38 49.40263 11.02777 11883 ft 271 kts 96°
2026-04-24 20:38 49.39983 11.05631 11634 ft 270 kts 96°
2026-04-24 20:38 49.39703 11.08472 11390 ft 269 kts 96°
2026-04-24 20:39 49.39426 11.11271 11129 ft 268 kts 96°
2026-04-24 20:39 49.39150 11.14051 10836 ft 253 kts 96°
2026-04-24 20:39 49.38884 11.16736 10541 ft 255 kts 96°
2026-04-24 20:39 49.38618 11.19414 10258 ft 251 kts 96°
2026-04-24 20:40 49.38355 11.22044 9965 ft 248 kts 96°
2026-04-24 20:40 49.38094 11.24658 9646 ft 247 kts 96°
2026-04-24 20:40 49.37834 11.27251 9329 ft 244 kts 96°
2026-04-24 20:40 49.37573 11.29840 9028 ft 249 kts 96°
2026-04-24 20:41 49.37312 11.32442 8717 ft 243 kts 96°
2026-04-24 20:41 49.37053 11.34992 8413 ft 239 kts 96°
2026-04-24 20:41 49.36800 11.37497 8110 ft 237 kts 96°
2026-04-24 20:41 49.36552 11.39993 7809 ft 236 kts 96°
2026-04-24 20:42 49.36310 11.42477 7514 ft 235 kts 96°
2026-04-24 20:42 49.36070 11.44950 7216 ft 234 kts 96°
2026-04-24 20:42 49.35877 11.47416 6927 ft 231 kts 87°
2026-04-24 20:42 49.36239 11.49763 6677 ft 225 kts 60°
2026-04-24 20:43 49.37291 11.51453 6410 ft 219 kts 27°
2026-04-24 20:43 49.38727 11.52075 6239 ft 213 kts
2026-04-24 20:43 49.40189 11.52342 6115 ft 211 kts
2026-04-24 20:43 49.41643 11.52582 5990 ft 210 kts
2026-04-24 20:44 49.43097 11.52816 5862 ft 209 kts
2026-04-24 20:44 49.44046 11.52666 5766 ft 207 kts 341°
2026-04-24 20:44 49.45192 11.51399 5627 ft 206 kts 307°
2026-04-24 20:44 49.45743 11.49370 5491 ft 207 kts 285°
2026-04-24 20:45 49.46060 11.46475 5336 ft 207 kts 281°
2026-04-24 20:45 49.46275 11.44294 5218 ft 207 kts 280°
2026-04-24 20:45 49.46491 11.42113 5100 ft 206 kts 280°
2026-04-24 20:45 49.46637 11.40642 5042 ft 205 kts 280°
2026-04-24 20:46 49.46832 11.38646 4819 ft 184 kts 280°
2026-04-24 20:46 49.47020 11.36736 4576 ft 176 kts 280°
2026-04-24 20:46 49.47203 11.34874 4342 ft 176 kts 280°
2026-04-24 20:46 49.47386 11.33019 4098 ft 175 kts 281°
2026-04-24 20:47 49.47564 11.31201 3871 ft 166 kts 281°
2026-04-24 20:47 49.47736 11.29451 3656 ft 166 kts 281°
2026-04-24 20:47 49.47909 11.27688 3428 ft 166 kts 281°
2026-04-24 20:47 49.48079 11.25945 3212 ft 156 kts 281°
2026-04-24 20:48 49.48233 11.24357 3004 ft 141 kts 282°
2026-04-24 20:48 49.48374 11.22906 2826 ft 136 kts 282°
2026-04-24 20:48 49.48519 11.21458 2638 ft 137 kts 282°
2026-04-24 20:48 49.48656 11.20046 2464 ft 126 kts 282°
2026-04-24 20:49 49.48790 11.18734 2295 ft 124 kts 283°
2026-04-24 20:49 49.48911 11.17490 2128 ft 112 kts 282°
2026-04-24 20:49 49.49023 11.16355 1974 ft 104 kts 282°
2026-04-24 20:49 49.49129 11.15271 1832 ft 102 kts 281°
2026-04-24 20:50 49.49236 11.14193 1688 ft 102 kts 280°
2026-04-24 20:50 49.49341 11.13117 1563 ft 101 kts 279°
2026-04-24 20:50 49.49439 11.12041 1436 ft 102 kts 279°
2026-04-24 20:50 49.49550 11.10993 1297 ft 97 kts 281°
2026-04-24 20:51 49.49653 11.09969 1135 ft 95 kts 280°
2026-04-24 20:51 49.49748 11.09017 1042 ft 82 kts 281°
2026-04-24 20:51 49.49825 11.08275 1030 ft 63 kts 277°
2026-04-24 20:51 49.49874 11.07757 1024 ft 37 kts 278°
2026-04-24 20:52 49.49816 11.07653 1022 ft 16 kts 147°
2026-04-24 20:52 49.49743 11.07713 1022 ft 6 kts 153°
2026-04-24 20:52 49.49739 11.07716 1022 ft 0 kts 152°
2026-04-24 20:53 49.49688 11.07755 1023 ft 17 kts 155°
2026-04-24 20:53 49.49593 11.07699 1023 ft 18 kts 277°
2026-04-24 20:53 49.49615 11.07474 1022 ft 19 kts 278°
2026-04-24 20:54 49.49633 11.07285 1022 ft 16 kts 278°
2026-04-24 20:54 49.49568 11.07201 1023 ft 20 kts 189°
2026-04-24 20:54 49.49495 11.07251 1023 ft 14 kts 98°
2026-04-24 20:54 49.49466 11.07458 1023 ft 20 kts 102°
2026-04-24 20:55 49.49451 11.07596 1023 ft 2 kts 98°
2026-04-24 20:55 49.49451 11.07597 1023 ft 0 kts 98°